Regional Weather Roundup
Issued by NWS

Home | Current Version | Previous Version | Graphics & Text | Print | Product List | Glossary On
Versions: 1 2 3 4 5 6 7 8 9 10 11 12 13 14 15 16 17 18 19 20 21 22 23 24 25 26 27 28 29 30 31 32 33 34 35 36 37 38 39 40 41 42 43 44 45 46 47 48 49 50
000
ASUS43 KFSD 270602
RWRSD

WEATHER ROUNDUP FOR SOUTH DAKOTA
NATIONAL WEATHER SERVICE SIOUX FALLS SD
1200 AM CST THU NOV 27 2014

NOTE: "FAIR" INDICATES FEW OR NO CLOUDS BELOW 12,000 FEET WITH NO
SIGNIFICANT WEATHER AND/OR OBSTRUCTIONS TO VISIBILITY.


SDZ001>005-009-010-012>017-270700-
NORTHWEST AND NORTH CENTRAL SOUTH DAKOTA

CITY           SKY/WX    TMP DP  RH WIND       PRES   REMARKS
BUFFALO          N/A     20  14  77 SE10      30.19F WCI   9
FAITH            N/A     15  11  83 SE10      30.33S WCI   2
MOBRIDGE       PTCLDY     1  -4  79 SE8       30.42S WCI -13
$$

SDZ012>016-024>037-041>051-057-063-072>074-270700-
SOUTHWEST AND SOUTH CENTRAL SOUTH DAKOTA

CITY           SKY/WX    TMP DP  RH WIND       PRES   REMARKS
RAPID CTY ARPT CLOUDY    24  22  91 E8        30.26F WCI  15
PIERRE         CLOUDY    13   7  77 E7        30.44R WCI   3
CUSTER         CLOUDY    23  19  85 SW3       30.16R
ELLSWORTH AFB  CLOUDY    22  21  94 E7        30.25F WCI  14
PHILIP         CLOUDY    19  14  81 E9        30.37S WCI   8
PINE RIDGE     CLOUDY    30  25  81 S3        30.26F
WINNER         CLOUDY    19  10  68 E8        30.42R WCI   9
$$

SDZ004>011-016>023-039-040-270700-
NORTHEAST SOUTH DAKOTA

CITY           SKY/WX    TMP DP  RH WIND       PRES   REMARKS
ABERDEEN       MOCLDY    -7 -12  79 N5        30.53R WCI -18
WATERTOWN      PTCLDY    -5 -11  75 NW5       30.45R WCI -16
SISSETON         N/A     -8 -12  83 N8        30.52R WCI -24
$$

SDZ017-020-022-023-036>040-048>070-270700-
SOUTHEAST SOUTH DAKOTA

CITY           SKY/WX    TMP DP  RH WIND       PRES   REMARKS
SIOUX FALLS    CLEAR      3  -5  69 N7        30.46R WCI  -9
HURON          PTCLDY     0  -6  76 N7        30.51R WCI -13
MITCHELL       CLOUDY     9   1  70 N10       30.52R WCI  -5
YANKTON        CLOUDY    10   5  79 NW9       30.51R WCI  -2
$$

ABBREVIATIONS USED IN REMARKS
   TC - TEMPERATURE IN CELSIUS
  WCI - WIND CHILL INDEX
   HX - HEAT INDEX
  VSB - VISIBILITY



USA.gov is the U.S. government's official web portal to all federal, state and local government web resources and services.